Retour au catalogue

STARLINK-37186

ActifCommunicationsSSO
NORAD 68617·PAYLOAD·🇺🇸 United States

Lancé Apr 5, 2026 depuis Vandenberg Space Force Base

Loading…

Prochains Passages (prochaines 24 heures)

TLE

FraisSource: CelesTrak SupGP

Époque: Sep 14, 2026, 22:44 UTC

1 68617C 26073R   26257.94770833  .00089855  00000+0  27899-2 0  2577
2 68617  97.2847  95.9872 0001669  95.0885 352.5661 15.33386072    11

Suivez STARLINK-37186 en temps réel avec AllMySat

Download on the App Store